Location: Davidschlag
(48.4333°N, 14.2833°E)
Time: 15:14:56
(UTC+00:00)

STARLINK-1052 - Pass Details

Date: 27 February 2020
Orbit: 548 x 551 km, 53.0° (Epoch: 28 March)

Event Time Altitude Azimuth Distance (km) Brightness Sun altitude
Rises 18:06:47 0° 263° (W) 2,713 8.9 -14.7°
Reaches altitude 10° 18:09:03 10° 268° (W) 1,821 7.7 -15.1°
Maximum altitude 18:13:06 53° 346° (NNW) 681 4.1 -15.7°
Enters shadow 18:15:25 23° 54° (NE) 1,182 4.9 -16.1°
